Date String (YYYY-MM-DD hh:mm:ss) UTC,Instrument flags,Ambient pressure (hPa),Sample flow (lpm),Bypass flow (lpm),Sample temperature (°C),Ambient temperature (°C),ASC tube jacket temperature (°C),LED temperature (°C),Box temperature (°C),Sample RH (%),Span deviation,Mass concentration (μg/m³),Mass concentration (μg/m³),Mass concentration (μg/m³)
DateTimeUTC,F1_M11,P_M11,Q1_M11,Q2_M11,T1_M11,T2_M11,T3_M11,T4_M11,T5_M11,U1_M11,ZSPAN_M11,X2_M11,X0_M11,X1_M11
2021-12-18 19:00:00,,0829.2,5.01,0.00,24.3,23.6,00.0,33.2,26.2,08.0,0000.0,0005.10,0013.75,0004.43
2021-12-18 19:01:00,,0829.2,4.99,0.00,24.3,23.5,00.0,33.2,26.2,08.0,0000.0,0005.12,0013.60,0004.45
2021-12-18 19:02:00,,0829.1,5.00,0.00,24.3,23.6,00.0,33.3,26.2,08.0,0000.0,0005.15,0013.25,0004.48
2021-12-18 19:03:00,,0829.1,5.01,0.00,24.3,23.6,00.0,33.3,26.2,08.0,0000.0,0005.25,0013.56,0004.50
2021-12-18 19:04:00,,0829.1,5.00,0.00,24.3,23.6,00.0,33.3,26.3,08.0,0000.0,0005.27,0013.02,0004.53
2021-12-18 19:05:00,,0829.0,5.00,0.00,24.4,23.6,00.0,33.3,26.3,08.0,0000.0,0005.29,0012.59,0004.55
2021-12-18 19:06:00,,0829.0,5.01,0.00,24.4,23.5,00.0,33.3,26.3,08.0,0000.0,0005.32,0012.63,0004.57
2021-12-18 19:07:00,,0829.0,4.99,0.00,24.4,23.5,00.0,33.3,26.3,08.0,0000.0,0005.34,0012.26,0004.59
2021-12-18 19:08:00,,0828.9,5.01,0.00,24.4,23.5,00.0,33.3,26.3,07.9,0000.0,0005.37,0012.12,0004.61
2021-12-18 19:09:00,,0828.9,5.00,0.00,24.4,23.5,00.0,33.3,26.2,07.9,0000.0,0005.40,0012.07,0004.63
2021-12-18 19:10:00,,0828.9,4.99,0.00,24.4,23.5,00.0,33.3,26.3,07.9,0000.0,0005.44,0012.63,0004.65
2021-12-18 19:11:00,,0828.9,5.01,0.00,24.4,23.6,00.0,33.3,26.3,07.9,0000.0,0005.47,0013.22,0004.67
2021-12-18 19:12:00,,0828.9,4.99,0.00,24.4,23.6,00.0,33.4,26.3,07.9,0000.0,0005.47,0013.13,0004.67
2021-12-18 19:13:00,,0828.9,5.01,0.00,24.4,23.6,00.0,33.4,26.3,07.9,0000.0,0005.49,0013.61,0004.66
2021-12-18 19:14:00,,0828.9,5.00,0.00,24.4,23.6,00.0,33.4,26.3,07.9,0000.0,0005.50,0013.93,0004.66
2021-12-18 19:15:00,,0828.9,5.00,0.00,24.4,23.6,00.0,33.4,26.3,07.9,0000.0,0005.52,0014.57,0004.65
2021-12-18 19:16:00,,0828.8,5.00,0.00,24.4,23.6,00.0,33.4,26.3,07.8,0000.0,0005.53,0014.50,0004.65
2021-12-18 19:17:00,,0828.8,5.00,0.00,24.4,23.6,00.0,33.4,26.3,07.8,0000.0,0005.52,0014.43,0004.65
2021-12-18 19:18:00,,0829.0,5.00,0.00,24.4,23.6,00.0,33.4,26.3,07.8,0000.0,0005.51,0014.23,0004.66
2021-12-18 19:19:00,,0829.3,5.00,0.00,24.5,23.6,00.0,33.4,26.3,07.8,0000.0,0005.53,0014.08,0004.65
2021-12-18 19:20:00,,0828.8,4.99,0.00,24.5,23.6,00.0,33.4,26.3,07.9,0000.0,0005.52,0013.80,0004.65
2021-12-18 19:21:00,,0828.6,5.02,0.00,24.5,23.6,00.0,33.4,26.3,07.8,0000.0,0005.51,0014.01,0004.65
2021-12-18 19:22:00,,0828.9,4.99,0.00,24.5,23.6,00.0,33.4,26.4,07.8,0000.0,0005.55,0013.54,0004.65
2021-12-18 19:23:00,,0829.2,5.01,0.00,24.5,23.6,00.0,33.4,26.4,07.8,0000.0,0005.56,0014.43,0004.65
2021-12-18 19:24:00,,0829.2,4.99,0.00,24.5,23.7,00.0,33.4,26.4,07.8,0000.0,0005.57,0014.29,0004.65
2021-12-18 19:25:00,,0828.7,5.01,0.00,24.5,23.7,00.0,33.4,26.3,07.8,0000.0,0005.56,0014.29,0004.65
2021-12-18 19:26:00,,0828.9,4.99,0.00,24.5,23.7,00.0,33.4,26.4,07.8,0000.0,0005.55,0014.17,0004.66
2021-12-18 19:27:00,,0829.1,5.01,0.00,24.5,23.7,00.0,33.5,26.4,07.8,0000.0,0005.55,0014.16,0004.67
2021-12-18 19:28:00,,0828.8,5.00,0.00,24.5,23.7,00.0,33.5,26.4,07.7,0000.0,0005.55,0013.93,0004.67
2021-12-18 19:29:00,,0829.0,5.01,0.00,24.5,23.7,00.0,33.5,26.4,07.8,0000.0,0005.59,0015.21,0004.67
2021-12-18 19:30:00,,0828.9,4.98,0.00,24.5,23.7,00.0,33.5,26.4,07.8,0000.0,0005.57,0015.41,0004.67
2021-12-18 19:31:00,,0828.9,5.01,0.00,24.5,23.7,00.0,33.5,26.4,07.7,0000.0,0005.53,0015.36,0004.66
2021-12-18 19:32:00,,0828.9,5.00,0.00,24.6,23.7,00.0,33.5,26.4,07.7,0000.0,0005.52,0014.86,0004.64
2021-12-18 19:33:00,,0828.8,4.99,0.00,24.6,23.8,00.0,33.5,26.4,07.7,0000.0,0005.49,0015.45,0004.63
2021-12-18 19:34:00,,0828.6,5.01,0.00,24.6,23.8,00.0,33.5,26.4,07.7,0000.0,0005.41,0015.45,0004.61
2021-12-18 19:35:00,,0828.5,5.00,0.00,24.6,23.8,00.0,33.5,26.4,07.7,0000.0,0005.40,0014.85,0004.59
2021-12-18 19:36:00,,0828.5,5.00,0.00,24.6,23.8,00.0,33.5,26.5,07.7,0000.0,0005.39,0014.91,0004.58
2021-12-18 19:37:00,,0828.5,5.00,0.00,24.6,23.8,00.0,33.6,26.5,07.7,0000.0,0005.37,0014.18,0004.58
2021-12-18 19:38:00,,0828.5,4.99,0.00,24.6,23.8,00.0,33.6,26.5,07.7,0000.0,0005.34,0014.11,0004.55
2021-12-18 19:39:00,,0828.4,5.01,0.00,24.6,23.9,00.0,33.6,26.5,07.7,0000.0,0005.27,0013.53,0004.53
2021-12-18 19:40:00,,0828.4,5.00,0.00,24.6,23.9,00.0,33.6,26.5,07.6,0000.0,0005.22,0012.93,0004.49
2021-12-18 19:41:00,,0828.5,5.00,0.00,24.7,23.9,00.0,33.6,26.5,07.7,0000.0,0005.19,0012.36,0004.47
2021-12-18 19:42:00,,0828.4,5.01,0.00,24.7,23.9,00.0,33.6,26.6,07.6,0000.0,0005.21,0012.54,0004.46
2021-12-18 19:43:00,,0828.4,4.99,0.00,24.7,23.9,00.0,33.6,26.6,07.6,0000.0,0005.25,0012.65,0004.46
2021-12-18 19:44:00,,0828.3,5.00,0.00,24.7,23.9,00.0,33.6,26.6,07.6,0000.0,0005.25,0011.59,0004.46
2021-12-18 19:45:00,,0828.3,4.99,0.00,24.7,23.9,00.0,33.6,26.6,07.6,0000.0,0005.24,0012.35,0004.47
2021-12-18 19:46:00,,0828.3,5.00,0.00,24.7,23.9,00.0,33.6,26.6,07.6,0000.0,0005.20,0012.28,0004.47
2021-12-18 19:47:00,,0828.5,5.01,0.00,24.7,23.9,00.0,33.6,26.6,07.6,0000.0,0005.16,0012.39,0004.47
2021-12-18 19:48:00,,0828.4,4.99,0.00,24.7,23.9,00.0,33.7,26.6,07.6,0000.0,0005.17,0012.61,0004.46
2021-12-18 19:49:00,,0828.3,5.00,0.00,24.7,23.9,00.0,33.7,26.6,07.6,0000.0,0005.23,0012.91,0004.47
2021-12-18 19:50:00,,0828.3,5.00,0.00,24.7,23.9,00.0,33.7,26.6,07.6,0000.0,0005.28,0013.40,0004.49
2021-12-18 19:51:00,,0828.3,5.00,0.00,24.8,23.9,00.0,33.7,26.6,07.5,0000.0,0005.36,0013.18,0004.51
2021-12-18 19:52:00,,0828.3,5.00,0.00,24.8,24.0,00.0,33.7,26.6,07.5,0000.0,0005.37,0013.06,0004.51
2021-12-18 19:53:00,,0828.3,5.01,0.00,24.8,24.0,00.0,33.7,26.6,07.5,0000.0,0005.39,0014.15,0004.52
2021-12-18 19:54:00,,0828.3,4.99,0.00,24.8,24.0,00.0,33.7,26.6,07.6,0000.0,0005.43,0014.41,0004.53
2021-12-18 19:55:00,,0828.4,5.02,0.00,24.8,24.0,00.0,33.7,26.6,07.6,0000.0,0005.47,0014.43,0004.54
2021-12-18 19:56:00,,0828.2,4.99,0.00,24.8,24.0,00.0,33.7,26.7,07.5,0000.0,0005.53,0013.53,0004.57
2021-12-18 19:57:00,,0828.2,5.02,0.00,24.8,24.1,00.0,33.7,26.7,07.5,0000.0,0005.61,0013.33,0004.60
2021-12-18 19:58:00,,0828.4,4.99,0.00,24.8,24.1,00.0,33.8,26.7,07.5,0000.0,0005.66,0012.92,0004.61
2021-12-18 19:59:00,,0828.2,5.00,0.00,24.9,24.1,00.0,33.8,26.7,07.5,0000.0,0005.72,0013.45,0004.64
